Date,TemperatureHighF,TemperatureAvgF,TemperatureLowF,DewpointHighF,DewpointAvgF,DewpointLowF,HumidityHigh,HumidityAvg,HumidityLow,PressureMaxIn,PressureMinIn,WindSpeedMaxMPH,WindSpeedAvgMPH,GustSpeedMaxMPH,PrecipitationSumIn
2013-1-1,23,10,-10,20,8,-14,92,89,84,30.36,30.06,15,6,19,0.00
2013-1-2,29,17,7,27,15,5,96,92,87,30.22,29.97,10,4,16,0.01
2013-1-3,18,9,2,15,6,-1,91,89,85,30.38,30.14,15,6,19,0.00
2013-1-4,27,19,10,21,15,8,94,84,77,30.17,30.08,18,4,22,0.00
2013-1-5,22,11,3,17,8,1,93,89,81,30.17,29.93,13,3,15,0.00
2013-1-6,24,14,6,20,11,3,93,89,81,30.30,29.94,20,6,28,0.00
2013-1-7,35,28,20,29,24,18,92,85,77,29.99,29.89,24,8,30,0.00
2013-1-8,35,24,13,32,22,11,93,91,86,29.99,29.72,25,8,30,0.00
2013-1-9,34,29,24,32,25,20,90,84,77,30.35,29.97,17,7,23,0.00
2013-1-10,37,34,30,32,29,26,95,84,78,30.22,29.80,24,14,30,0.08
2013-1-11,35,33,22,35,33,20,99,98,96,29.65,29.35,19,8,24,0.00
2013-1-12,21,10,3,20,6,0,96,87,79,30.16,29.46,0,0,0,0.00
2013-1-13,8,4,0,4,0,-4,88,84,80,30.33,30.15,0,0,0,0.00
2013-1-14,9,4,-3,4,0,-6,89,85,78,30.50,30.33,0,0,0,0.00
2013-1-15,25,14,2,19,10,-1,92,84,74,30.33,29.82,22,6,28,0.00
2013-1-16,36,23,1,34,20,-4,95,88,75,30.31,29.70,21,8,27,0.00
2013-1-17,22,11,-1,17,6,-7,84,79,73,30.46,30.28,11,4,13,0.00
2013-1-18,37,29,18,32,26,14,95,89,81,30.27,29.77,24,8,30,0.00
2013-1-19,38,22,0,34,19,-3,95,88,81,30.35,29.71,21,8,28,0.00
2013-1-20,9,2,-5,6,-2,-9,86,82,79,30.49,30.35,11,4,16,0.00
2013-1-21,0,-7,-12,-6,-12,-16,84,78,74,30.48,30.39,14,3,19,0.00
2013-1-22,7,-4,-14,3,-8,-18,85,80,72,30.50,30.31,9,3,12,0.00
2013-1-23,10,2,-9,7,-2,-14,90,83,74,30.71,30.24,18,6,23,0.00
2013-1-24,14,3,-9,9,-4,-14,81,75,66,30.75,30.19,23,12,29,0.00
2013-1-25,20,9,-2,16,4,-6,86,81,74,30.38,30.03,20,7,23,0.00
2013-1-26,22,10,-5,16,6,-8,87,82,75,30.39,30.08,22,10,28,0.00
2013-1-27,33,29,21,32,26,16,98,90,81,30.08,29.78,18,10,21,0.02
2013-1-28,33,32,31,33,32,30,100,99,97,29.86,29.63,13,5,17,0.02
2013-1-29,33,27,23,33,27,21,100,97,92,29.84,29.58,14,5,19,0.00
2013-1-30,23,11,-1,21,8,-4,91,88,85,29.91,29.77,17,9,22,0.00
2013-1-31,-1,-6,-10,-4,-9,-14,87,85,83,30.43,29.91,16,5,20,0.00
2013-2-1,9,-2,-14,7,-5,-18,90,85,78,30.43,30.11,16,6,20,0.00
2013-2-2,14,6,-5,12,3,-8,93,89,84,30.26,30.02,15,4,17,0.00
2013-2-3,14,11,4,11,8,2,93,89,83,30.18,29.99,15,4,16,0.00
2013-2-4,21,10,-2,20,7,-4,96,89,81,30.12,29.75,19,5,25,0.00
2013-2-5,31,19,6,30,17,4,98,91,84,30.12,29.71,17,5,22,0.01
2013-2-6,30,20,7,27,18,5,94,91,88,30.13,29.88,22,10,27,0.00
2013-2-7,27,24,20,25,22,17,96,92,86,30.33,30.04,13,6,18,0.00
2013-2-8,26,20,6,24,18,4,95,92,87,30.38,30.16,26,10,32,0.00
2013-2-9,33,29,25,32,28,23,97,96,93,30.15,29.85,25,15,32,0.00
2013-2-10,30,29,27,30,28,26,99,98,96,29.84,29.30,28,15,32,0.05
2013-2-11,27,21,12,26,20,10,98,96,92,30.09,29.49,15,6,19,0.00
2013-2-12,30,21,15,27,19,13,95,92,86,30.08,29.86,14,5,18,0.00
2013-2-13,36,28,14,33,26,13,99,94,85,29.86,29.59,12,5,16,0.01
2013-2-14,32,19,2,31,17,-1,98,92,87,30.30,29.68,13,5,16,0.00
2013-2-15,15,6,-2,11,3,-4,94,89,81,30.43,30.30,4,0,5,0.00
2013-2-16,14,11,6,12,9,4,94,91,89,30.35,30.11,16,6,18,0.00
2013-2-17,34,23,9,31,21,7,95,92,88,30.11,29.55,27,14,28,0.00
2013-2-18,35,18,-1,33,17,-3,96,92,89,30.02,29.52,22,10,28,0.00
2013-2-19,0,-4,-11,-2,-7,-14,90,88,86,30.53,30.02,19,9,23,0.00
2013-2-20,7,-3,-16,4,-6,-19,90,87,85,30.58,30.46,8,2,10,0.00
2013-2-21,20,12,2,16,8,-1,88,84,80,30.49,30.12,18,12,20,0.00
2013-2-22,26,20,11,24,18,9,96,94,86,30.12,29.93,18,4,22,0.02
2013-2-23,23,12,-1,20,10,-3,96,93,86,30.02,29.91,5,0,8,0.00
2013-2-24,22,9,-4,20,7,-7,96,90,85,30.18,30.02,6,0,6,0.00
2013-2-25,25,20,10,25,19,8,98,96,93,30.17,30.07,6,1,8,0.00
2013-2-26,29,22,16,27,21,14,98,95,90,30.08,29.97,12,4,15,0.00
2013-2-27,26,19,12,23,17,10,95,92,85,30.11,29.98,15,8,20,0.00
2013-3-1,14,10,0,12,8,0,93,89,90,30.41,30.39,3,0,3,0.00
2013-3-2,23,14,0,20,12,-2,93,89,83,30.41,30.17,13,6,17,0.00
2013-3-3,30,24,16,26,21,13,95,86,77,30.17,29.92,25,16,32,0.00
2013-3-4,26,25,24,25,24,22,96,95,94,30.00,29.86,29,18,36,0.00
2013-3-5,29,24,15,27,22,13,96,95,90,30.38,29.95,15,8,18,0.03
2013-3-6,25,19,9,21,17,7,95,90,83,30.47,30.37,9,2,12,0.00
2013-3-7,25,18,11,22,16,9,94,91,88,30.39,30.24,23,12,27,0.00
2013-3-8,33,22,11,32,20,9,95,92,88,30.31,30.06,17,10,19,0.08
2013-3-9,35,34,30,34,33,30,98,97,95,30.05,29.68,18,9,21,0.60
2013-3-10,30,27,20,29,25,18,96,91,85,30.06,29.85,22,11,28,0.00
2013-3-11,26,20,12,22,17,10,92,88,77,29.99,29.85,14,4,16,0.00
2013-3-12,28,22,16,26,20,14,93,88,81,30.31,29.90,19,9,23,0.00
2013-3-13,26,17,6,24,14,4,92,88,76,30.45,30.21,15,4,18,0.00
2013-3-14,36,29,21,32,26,19,95,90,81,30.21,30.02,22,6,27,0.00
2013-3-15,34,31,26,32,30,24,97,95,92,30.04,29.82,17,7,19,0.01
2013-3-16,27,16,6,25,13,2,96,89,82,30.33,29.94,13,6,16,0.00
2013-3-17,27,16,3,26,12,0,96,86,80,30.33,29.74,31,14,35,0.00
2013-3-18,33,19,8,32,17,6,97,93,87,29.98,29.62,31,11,40,0.00
2013-3-19,16,9,2,11,6,0,92,85,75,30.36,29.98,14,5,19,0.00
2013-3-20,17,9,1,10,4,-2,88,81,69,30.39,30.23,15,5,21,0.00
2013-3-21,22,10,-4,14,5,-8,89,81,66,30.23,30.12,5,1,6,0.00
2013-3-22,26,15,1,20,12,-2,92,86,74,30.17,30.11,7,1,8,0.00
2013-3-23,29,21,10,24,17,7,93,86,76,30.23,30.14,10,3,13,0.00
2013-3-24,32,24,17,29,22,15,94,91,83,30.18,30.06,13,5,16,0.02
2013-3-25,31,26,20,27,23,16,94,87,82,30.33,30.13,15,7,18,0.00
2013-3-26,29,19,10,25,17,8,95,89,83,30.38,30.32,9,2,10,0.00
2013-3-27,34,23,10,30,20,8,95,89,82,30.38,30.32,12,5,14,0.00
2013-3-28,37,32,24,34,29,22,95,89,84,30.35,30.23,17,11,20,0.00
2013-3-29,42,36,30,39,34,29,96,93,88,30.26,29.98,14,9,16,0.00
2013-3-30,41,37,32,39,36,32,97,94,88,29.98,29.90,15,4,21,0.02
2013-3-31,34,30,22,33,26,17,98,86,70,30.20,29.86,20,10,25,0.01
2013-4-1,31,24,18,25,19,14,87,81,74,30.36,30.20,15,6,19,0.00
2013-4-2,36,27,20,26,22,18,95,80,52,30.39,30.31,10,2,12,0.00
2013-4-3,52,37,26,43,31,22,90,80,67,30.38,29.99,28,11,36,0.00
2013-4-4,44,38,30,38,33,28,92,84,69,30.22,30.00,21,6,28,0.00
2013-4-5,36,32,27,34,29,24,95,88,77,30.24,29.76,31,13,37,0.00
2013-4-6,49,40,32,45,38,31,96,89,84,29.81,29.51,27,9,35,0.08
2013-4-7,45,38,32,42,36,31,97,93,86,29.93,29.70,16,6,19,0.22
2013-4-8,44,41,38,43,40,36,98,95,91,30.05,29.67,17,8,22,0.00
2013-4-9,38,32,27,36,29,26,96,87,71,30.21,30.00,23,13,27,0.04
2013-4-10,35,34,32,32,29,26,96,85,71,30.19,29.89,33,15,41,0.00
2013-4-11,33,31,28,32,30,28,98,97,93,29.90,29.69,29,18,34,0.03
2013-4-12,34,30,27,32,29,26,97,95,89,29.90,29.73,19,5,22,0.01
2013-4-13,35,31,28,30,28,26,96,90,79,29.93,29.89,11,3,13,0.00
2013-4-14,36,32,30,35,30,28,98,95,89,29.91,29.41,33,11,42,0.11
2013-4-15,38,35,32,33,31,29,90,86,80,30.02,29.45,31,14,40,0.00
2013-4-16,40,34,28,33,30,26,93,86,75,30.33,30.02,9,3,16,0.00
2013-4-17,39,35,33,35,32,30,97,90,84,30.34,30.00,19,8,22,0.03
2013-4-18,34,32,31,32,32,30,99,97,94,29.99,29.69,19,7,26,0.08
2013-4-19,34,30,25,32,28,24,99,95,91,30.07,29.66,15,4,20,0.02
2013-4-20,36,29,18,30,24,17,97,85,60,30.30,30.07,14,4,19,0.01
2013-4-21,48,39,31,44,37,30,97,93,84,30.28,30.00,28,13,35,0.13
2013-4-22,37,33,29,34,31,28,98,93,85,30.27,30.16,19,7,25,0.02
2013-4-23,37,29,21,31,26,19,96,88,73,30.27,30.11,12,6,15,0.04
2013-4-24,45,35,29,39,31,26,96,88,64,30.11,29.94,26,8,32,0.03
2013-4-25,53,38,27,43,32,24,92,81,60,30.22,29.94,22,8,27,0.06
2013-4-26,68,53,38,52,42,35,92,68,33,30.11,29.89,19,5,22,0.00
2013-4-27,75,59,38,46,38,34,90,52,24,30.11,29.79,16,6,20,0.00
2013-4-28,81,63,51,53,48,41,85,60,33,29.79,29.61,28,9,34,0.00
2013-4-29,75,59,38,54,41,32,87,56,27,29.81,29.40,21,6,25,0.00
2013-4-30,67,60,50,58,45,32,82,60,29,29.95,29.26,25,9,32,0.00
2013-5-1,50,40,35,38,28,23,74,63,51,30.54,29.94,16,8,23,0.00
2013-5-2,48,39,32,29,27,25,82,63,42,30.64,30.46,22,8,28,0.00
2013-5-3,45,36,25,36,26,21,94,68,45,30.47,30.18,23,9,27,0.03
2013-5-4,41,38,35,39,36,33,96,93,91,30.21,30.14,19,10,22,0.09
2013-5-5,53,45,39,48,43,38,97,92,80,30.21,30.11,9,2,12,0.03
2013-5-6,70,56,40,54,48,39,96,77,53,30.13,29.99,13,2,16,0.01
2013-5-7,77,62,43,53,45,40,95,60,27,30.04,29.87,17,3,23,0.00
2013-5-8,63,59,56,58,54,49,94,85,61,29.96,29.89,25,6,26,0.37
2013-5-9,58,54,45,55,51,39,95,90,77,30.10,29.93,23,11,26,0.03
2013-5-10,67,51,36,49,36,29,85,59,25,30.14,29.86,16,6,23,0.00
2013-5-11,53,46,38,40,29,20,85,56,28,30.22,29.98,21,9,25,0.00
2013-5-12,61,47,27,28,23,20,77,44,21,30.26,30.08,16,4,19,0.00
2013-5-13,86,63,41,53,37,23,52,40,30,30.08,29.59,31,12,47,0.00
2013-5-14,96,75,52,54,45,29,71,39,13,29.69,29.43,25,8,29,0.00
2013-5-15,79,64,48,54,47,40,77,56,27,29.88,29.69,24,6,26,0.00
2013-5-16,84,70,49,48,43,37,81,44,19,29.85,29.72,20,8,28,0.00
2013-5-17,68,62,58,62,53,40,95,76,37,29.86,29.78,27,17,32,0.19
2013-5-18,82,69,58,70,62,56,95,80,52,29.86,29.65,21,11,26,0.31
2013-5-19,77,68,61,69,64,59,95,86,66,29.66,29.48,28,11,48,0.44
2013-5-20,68,63,60,61,59,57,96,88,74,29.49,29.40,25,10,34,0.08
2013-5-21,60,55,48,58,54,46,96,95,92,29.70,29.41,23,12,26,0.36
2013-5-22,54,49,46,50,47,44,96,93,82,30.02,29.69,34,14,36,0.14
2013-5-23,64,54,44,47,41,35,95,66,34,30.30,30.02,20,9,26,0.00
2013-5-24,70,60,47,54,45,38,90,61,32,30.31,30.10,26,13,34,0.11
2013-5-25,58,55,52,55,51,48,91,87,82,30.15,30.08,27,17,32,0.00
2013-5-26,55,52,50,52,49,46,95,89,83,30.14,29.97,31,17,36,0.00
2013-5-27,63,57,53,57,54,51,96,90,80,29.99,29.77,22,13,29,0.00
2013-5-28,63,58,54,59,55,53,96,92,84,29.76,29.66,16,6,21,0.00
2013-5-29,78,64,52,72,62,51,98,91,77,29.74,29.50,24,11,28,0.24
2013-5-30,78,68,62,65,63,56,95,83,60,29.53,29.38,28,14,39,0.29
2013-5-31,69,63,57,63,56,53,91,76,59,29.47,29.37,30,15,40,0.01
2013-6-1,66,59,52,60,54,47,95,84,75,29.96,29.47,14,3,19,0.00
2013-6-2,68,58,49,49,44,40,88,60,37,30.08,29.95,18,4,23,0.00
2013-6-3,71,61,46,48,44,41,84,55,37,30.00,29.84,25,10,32,0.00
2013-6-4,62,59,57,58,54,46,95,86,57,29.96,29.83,23,13,30,0.57
2013-6-5,67,59,51,56,54,49,96,83,55,29.97,29.90,16,4,18,0.01
2013-6-6,60,55,51,53,51,50,95,88,77,30.02,29.95,12,6,16,0.00
2013-6-7,68,58,50,53,51,48,96,78,54,30.03,29.86,13,2,17,0.00
2013-6-8,67,60,55,58,54,49,89,79,59,29.86,29.78,21,10,24,0.07
2013-6-9,63,60,57,61,58,56,96,93,89,29.80,29.66,29,14,35,0.71
2013-6-10,76,65,57,64,59,56,96,83,59,29.85,29.74,12,3,19,0.00
2013-6-11,79,68,58,68,62,57,96,83,55,29.88,29.71,18,4,20,0.01
2013-6-12,71,65,58,63,58,55,94,80,65,29.95,29.72,25,5,37,1.08
2013-6-13,78,67,52,60,56,50,94,71,44,30.08,29.95,12,2,20,0.00
2013-6-14,82,71,62,67,62,58,90,73,58,30.00,29.74,27,12,37,0.00
2013-6-15,84,72,63,67,59,48,95,68,30,29.85,29.76,15,3,18,0.00
2013-6-16,86,73,57,66,55,47,81,57,27,29.88,29.78,17,3,26,0.09
2013-6-17,82,72,58,61,58,55,90,64,42,29.92,29.83,12,2,19,0.00
2013-6-18,77,66,57,62,58,53,92,76,55,30.03,29.92,16,5,22,0.42
2013-6-19,88,75,62,66,60,54,92,64,33,29.96,29.81,16,7,28,0.00
2013-6-20,89,80,70,69,67,62,84,66,48,29.88,29.68,29,11,30,0.00
2013-6-21,82,71,63,72,65,61,95,84,64,29.93,29.63,25,11,40,1.78
2013-6-22,80,71,65,72,67,62,94,85,69,29.94,29.70,31,9,39,0.38
2013-6-23,80,72,65,70,66,62,96,82,56,29.81,29.49,20,6,25,1.37
2013-6-24,77,71,62,72,67,60,95,86,73,29.83,29.69,13,3,18,0.01
2013-6-25,86,76,66,78,71,64,96,86,72,29.73,29.58,17,7,23,0.00
2013-6-26,89,78,69,75,70,64,95,77,46,29.75,29.56,10,2,17,0.12
2013-6-27,87,77,66,67,64,58,94,67,39,29.80,29.73,8,1,17,0.00
2013-6-28,79,72,65,64,61,59,84,68,54,29.81,29.76,9,3,18,0.00
2013-6-29,78,70,61,63,58,52,94,69,42,29.94,29.75,20,7,27,0.05
2013-6-30,80,69,56,59,55,49,93,64,37,30.08,29.94,15,3,18,0.00
2013-7-1,84,73,59,63,57,49,90,60,31,30.14,30.07,12,2,16,0.00
2013-7-2,81,68,60,62,59,57,92,75,45,30.10,29.97,4,1,6,0.00
2013-7-3,83,73,60,63,56,51,86,59,35,30.00,29.85,13,3,17,0.00
2013-7-4,88,76,61,64,59,54,87,57,35,29.87,29.73,22,7,29,0.00
2013-7-5,89,79,70,68,63,58,69,59,46,29.76,29.67,25,10,30,0.00
2013-7-6,84,76,69,76,68,63,91,76,65,29.76,29.67,13,4,20,0.13
2013-7-7,90,80,70,77,72,67,92,78,58,29.83,29.71,8,2,13,0.02
2013-7-8,90,76,64,74,69,62,95,79,49,29.92,29.82,9,2,13,0.00
2013-7-9,85,75,66,74,69,62,96,82,64,29.92,29.64,15,4,42,0.53
2013-7-10,82,70,57,67,60,55,96,75,45,30.04,29.92,11,1,14,0.00
2013-7-11,84,70,57,66,61,55,94,76,53,30.03,29.86,17,5,24,0.00
2013-7-12,88,81,67,74,68,61,82,65,56,29.86,29.73,23,11,34,0.00
2013-7-13,77,73,69,71,68,66,91,84,77,29.93,29.81,19,8,27,0.13
2013-7-14,76,70,68,70,66,62,95,86,76,30.10,29.91,13,4,16,0.00
2013-7-15,85,74,65,72,68,63,96,81,55,30.15,30.05,12,3,20,0.00
2013-7-16,89,79,70,74,70,66,94,76,49,30.12,30.05,19,5,20,0.00
2013-7-17,90,80,70,76,71,67,90,75,54,30.15,30.00,15,4,20,0.00
2013-7-18,90,82,74,75,72,70,88,73,54,30.01,29.67,23,8,27,0.00
2013-7-19,85,77,68,72,67,63,91,72,49,29.83,29.67,8,1,16,0.00
2013-7-20,80,70,60,67,64,58,95,81,60,29.89,29.81,7,1,13,0.00
2013-7-21,82,72,63,72,66,60,94,82,66,29.86,29.68,12,4,17,0.03
2013-7-22,83,73,59,73,66,56,95,79,58,29.83,29.59,17,2,18,0.00
2013-7-23,78,65,53,61,57,51,95,77,48,29.97,29.83,9,2,19,0.01
2013-7-24,81,70,59,65,59,57,93,72,46,30.01,29.89,6,1,12,0.00
2013-7-25,81,71,64,69,65,59,94,81,59,29.92,29.85,10,2,16,0.07
2013-7-26,69,62,53,63,55,49,94,78,56,30.08,29.88,12,2,19,0.00
2013-7-27,71,59,48,52,49,46,95,71,44,30.10,29.93,7,1,14,0.00
2013-7-28,74,60,44,57,51,43,95,73,48,30.03,29.96,10,2,15,0.00
2013-7-29,76,62,49,64,56,48,95,80,50,30.07,30.00,9,2,16,0.23
2013-7-30,75,67,61,67,63,60,95,89,74,30.03,29.96,7,1,12,0.00
2013-7-31,80,67,57,67,60,54,96,81,48,30.06,29.97,11,1,16,0.02
2013-8-1,82,67,54,66,58,52,94,75,48,30.01,29.83,9,1,10,0.00
2013-8-2,78,66,52,62,57,51,94,76,49,30.01,29.83,6,1,9,0.00
2013-8-3,80,64,49,61,54,48,94,73,44,30.17,30.01,9,1,13,0.00
2013-8-4,75,62,51,61,56,49,93,80,55,30.20,29.90,10,2,12,0.00
2013-8-5,82,70,61,71,64,59,94,84,62,29.99,29.75,9,2,16,1.03
2013-8-6,84,68,56,72,63,54,95,84,61,29.80,29.63,13,3,23,0.01
2013-8-7,78,66,58,62,57,52,95,75,47,29.97,29.76,9,1,14,0.00
2013-8-8,72,63,56,64,59,54,94,87,73,30.01,29.93,10,1,15,0.36
2013-8-9,76,64,52,62,57,50,95,78,49,30.09,29.97,8,1,13,0.01
2013-8-10,76,65,52,63,58,50,95,79,54,30.15,30.00,4,0,7,0.00
2013-8-11,82,70,60,68,64,59,95,82,57,30.02,29.94,5,1,7,0.00
2013-8-12,80,67,53,65,59,51,95,76,47,30.03,29.97,9,1,10,0.01
2013-8-13,76,64,52,62,55,50,95,76,47,30.16,30.03,10,1,12,0.00
2013-8-14,76,63,48,61,54,46,95,76,44,30.16,30.04,8,1,13,0.00
2013-8-15,78,65,56,63,58,54,95,80,51,30.09,30.02,7,1,10,0.00
2013-8-16,76,64,49,62,57,48,95,80,54,30.15,30.08,10,2,14,0.00
2013-8-17,80,67,54,66,59,52,95,79,59,30.12,30.02,18,4,24,0.01
2013-8-18,80,68,55,65,60,54,94,78,57,30.04,29.91,17,4,24,0.00
2013-8-19,86,75,65,74,68,61,90,80,65,29.95,29.77,12,4,16,0.00
2013-8-20,88,77,67,78,72,65,95,86,70,29.80,29.74,10,3,14,0.00
2013-8-21,88,77,70,78,72,63,95,83,61,29.93,29.72,9,2,10,0.00
2013-8-22,82,72,61,65,59,54,91,66,41,30.07,29.93,14,4,17,0.00
2013-8-23,84,70,55,73,64,52,93,82,68,30.06,29.92,15,4,20,0.00
2013-8-24,88,79,71,76,72,69,93,81,63,29.93,29.79,19,8,28,0.00
2013-8-25,91,83,77,79,75,72,91,78,66,29.88,29.81,16,6,22,0.00
2013-8-26,92,82,72,80,75,70,94,82,64,29.87,29.71,14,3,21,0.00
2013-8-27,92,81,71,81,75,69,94,83,70,29.83,29.69,8,1,10,0.00
2013-8-28,88,78,69,78,72,67,92,84,69,29.93,29.82,11,2,15,0.00
2013-8-29,90,80,72,76,72,68,92,78,56,29.88,29.75,13,2,17,0.00
2013-8-30,83,74,64,73,68,61,90,81,62,29.87,29.76,11,2,14,0.00
2013-8-31,88,70,58,72,64,55,91,82,53,29.83,29.66,14,2,22,0.40
2013-9-1,68,63,53,64,58,50,90,85,76,29.98,29.74,7,1,14,0.01
2013-9-2,70,58,46,58,51,43,91,80,61,30.09,29.98,11,1,13,0.00
2013-9-3,80,63,47,68,57,44,90,80,58,30.05,29.93,9,1,10,0.01
2013-9-4,84,71,58,72,65,54,88,80,63,30.07,29.96,8,1,12,0.01
2013-9-5,86,73,61,70,64,56,85,75,54,30.12,29.99,11,3,15,0.00
2013-9-6,92,77,65,73,67,60,85,73,53,29.99,29.75,14,3,23,0.00
2013-9-7,90,78,65,73,68,61,87,74,51,29.92,29.77,12,2,17,0.00
2013-9-8,75,69,64,68,63,59,85,82,76,29.96,29.79,13,4,16,0.01
2013-9-9,91,75,66,76,68,61,86,78,55,29.79,29.55,12,3,19,0.24
2013-9-10,84,72,64,68,63,59,84,74,49,29.93,29.72,10,2,15,0.06
2013-9-11,86,70,58,66,58,51,84,67,36,30.06,29.92,7,1,10,0.00
2013-9-12,76,61,48,58,50,43,85,70,41,30.20,30.05,11,2,19,0.00
2013-9-13,72,60,47,52,48,42,84,67,42,30.24,30.01,9,2,13,0.00
2013-9-14,65,55,47,56,50,42,84,82,67,30.02,29.80,13,3,20,0.39
2013-9-15,68,58,48,56,52,43,84,79,60,30.28,29.82,14,4,20,0.30
2013-9-16,66,54,44,51,46,39,85,75,51,30.37,30.17,11,2,15,0.01
2013-9-17,63,56,48,57,50,43,84,82,79,30.18,29.86,16,6,22,0.01
2013-9-18,84,70,59,74,63,53,82,79,68,29.85,29.55,15,5,19,0.00
2013-9-19,75,68,58,65,61,52,81,77,60,29.82,29.54,20,2,29,1.09
2013-9-20,60,55,46,53,49,40,83,80,67,29.94,29.80,10,2,19,0.01
2013-9-21,68,52,38,50,43,33,83,74,46,30.01,29.86,8,1,12,0.00
2013-9-22,82,63,49,58,52,44,82,69,42,29.89,29.69,17,7,27,0.00
2013-9-23,76,65,54,56,53,49,81,68,45,29.82,29.72,20,8,27,0.00
2013-9-24,72,59,52,58,52,46,82,77,57,29.91,29.82,8,2,13,0.00
2013-9-25,76,62,50,58,52,44,82,70,46,29.90,29.74,15,4,21,0.00
2013-9-26,84,70,58,62,58,52,81,69,46,29.79,29.66,23,9,35,0.00
2013-9-27,78,72,65,69,63,58,80,75,63,29.75,29.64,22,6,26,0.29
2013-9-28,74,58,47,63,51,42,82,75,54,29.88,29.55,15,4,27,0.40
2013-9-29,79,60,44,52,46,39,82,62,32,29.91,29.65,15,3,22,0.00
2013-9-30,81,67,56,54,51,47,74,57,36,29.66,29.48,15,4,19,0.00
2013-10-1,74,63,49,55,46,36,80,56,25,29.95,29.47,16,3,18,0.00
2013-10-2,78,58,41,53,43,36,82,63,26,29.98,29.73,23,5,29,0.27
2013-10-3,56,54,52,50,48,46,80,80,79,29.94,29.81,12,5,18,0.25
2013-10-4,57,55,53,51,49,47,81,80,80,29.94,29.72,25,10,27,0.07
2013-10-5,59,51,43,53,44,39,84,77,64,29.78,29.69,17,5,23,0.01
2013-10-6,56,48,43,51,42,38,83,80,79,29.88,29.68,12,1,17,0.28
2013-10-7,70,53,41,49,41,35,83,66,33,29.98,29.86,7,1,9,0.00
2013-10-8,80,63,49,49,47,44,81,59,32,29.88,29.67,22,7,34,0.00
2013-10-9,78,64,54,54,51,48,80,63,41,29.94,29.80,14,5,17,0.00
2013-10-10,82,65,53,56,51,47,81,64,38,29.92,29.71,19,7,27,0.00
2013-10-11,69,61,52,61,54,46,81,77,66,29.72,29.44,22,10,35,0.74
2013-10-12,59,50,39,46,41,34,82,72,44,30.20,29.66,19,7,28,0.01
2013-10-13,59,46,32,41,34,27,83,67,39,30.43,30.20,6,0,8,0.00
2013-10-14,49,46,44,43,40,37,82,78,71,30.36,29.81,27,7,32,0.97
2013-10-15,50,48,44,44,42,39,80,79,79,29.92,29.62,19,6,27,0.15
2013-10-16,57,45,36,41,37,30,84,75,50,30.00,29.87,10,1,15,0.01
2013-10-17,49,41,38,44,36,32,83,81,79,29.94,29.81,9,1,19,0.09
2013-10-18,54,42,31,39,33,26,84,73,46,30.01,29.84,10,2,21,0.07
2013-10-19,44,38,30,40,31,26,84,76,60,29.84,29.71,10,3,15,0.01
2013-10-20,46,38,32,41,33,27,84,82,80,29.96,29.60,13,2,16,0.10
2013-10-21,42,34,26,30,26,22,84,75,56,30.00,29.96,10,1,16,0.00
2013-10-22,43,33,24,33,27,19,84,77,58,30.10,29.97,7,1,12,0.00
2013-10-23,40,34,27,30,26,22,84,74,57,30.18,30.05,11,1,15,0.00
2013-10-24,45,36,27,36,30,22,84,79,64,30.35,30.18,9,1,13,0.00
2013-10-25,62,42,24,46,33,19,84,73,53,30.35,29.82,18,5,25,0.01
2013-10-26,48,38,28,39,30,24,83,74,57,30.14,29.88,13,2,17,0.00
2013-10-27,58,42,28,39,32,24,84,69,46,30.15,29.82,15,4,21,0.00
2013-10-28,43,35,29,30,26,23,83,70,46,30.43,30.15,18,5,21,0.00
2013-10-29,38,35,32,33,30,26,83,80,76,30.41,30.08,12,4,17,0.01
2013-10-30,46,41,36,40,35,31,80,79,79,30.08,29.70,10,2,13,0.07
2013-10-31,41,39,37,35,34,31,82,80,79,29.71,29.43,9,2,13,0.01
2013-11-1,50,42,34,43,36,29,84,80,73,29.90,29.47,8,2,15,0.00
2013-11-2,53,40,32,40,34,26,84,77,57,30.08,29.90,7,1,10,0.01
2013-11-3,57,46,34,38,34,29,83,66,41,30.04,29.74,27,10,40,0.00
2013-11-4,49,42,31,40,35,26,84,77,61,30.14,29.72,16,4,27,0.00
2013-11-5,38,32,28,30,26,23,84,79,64,30.27,30.10,11,2,13,0.00
2013-11-6,37,29,20,30,24,15,85,81,68,30.20,30.10,9,2,13,0.18
2013-11-7,43,30,19,31,24,14,84,79,55,30.30,30.19,8,1,13,0.01
2013-11-8,43,34,23,37,29,18,84,80,74,30.20,29.61,17,6,28,0.01
2013-11-9,44,40,34,39,34,29,83,78,66,30.29,29.68,14,5,20,0.00
2013-11-10,37,33,26,32,28,21,84,82,78,30.35,30.11,14,4,19,0.00
2013-11-11,35,21,12,31,15,8,84,75,61,30.81,30.17,15,6,21,0.00
2013-11-12,32,19,6,18,11,3,86,73,45,30.85,30.43,15,6,19,0.00
2013-11-13,54,36,24,38,28,17,83,74,53,30.43,29.87,22,9,27,0.00
2013-11-14,54,41,33,41,34,28,84,77,60,29.87,29.76,12,2,16,0.00
2013-11-15,57,41,26,44,34,21,83,77,56,29.82,29.53,26,7,32,0.00
2013-11-16,48,43,37,42,37,31,83,80,79,29.53,29.20,17,8,20,0.07
2013-11-17,43,38,31,38,33,26,85,82,80,29.91,29.30,14,5,19,0.00
2013-11-18,37,30,25,27,24,21,86,80,64,30.24,29.92,13,4,18,0.00
2013-11-19,51,38,25,38,31,21,85,76,57,30.23,29.78,31,16,35,0.00
2013-11-20,48,42,31,38,34,27,84,74,65,30.03,29.77,20,10,30,0.00
2013-11-21,31,22,15,26,17,10,85,81,74,30.64,30.03,19,9,24,0.00
2013-11-22,37,18,6,16,9,3,86,69,28,30.77,30.52,19,6,25,0.00
2013-11-23,17,8,2,6,2,-2,85,77,57,30.96,30.75,10,2,14,0.00
2013-11-24,40,24,6,26,14,1,80,67,45,30.75,29.97,32,15,47,0.00
2013-11-25,40,34,28,30,26,21,84,74,60,30.16,29.93,22,6,27,0.00
2013-11-26,28,19,8,21,12,4,84,73,59,30.46,30.15,17,7,21,0.00
2013-11-27,24,14,2,13,8,-1,86,77,63,30.47,30.06,24,6,30,0.00
2013-11-28,25,18,9,17,11,4,84,73,60,30.54,30.10,13,3,17,0.00
2013-11-29,35,22,7,22,15,3,85,75,58,30.54,30.10,27,9,35,0.00
2013-11-30,37,27,19,28,22,14,84,80,68,30.23,30.04,11,3,14,0.00
2013-12-1,32,26,20,26,21,15,85,82,76,30.23,29.89,11,3,13,0.00
2013-12-2,37,33,28,32,28,24,84,82,80,29.88,29.52,17,8,21,0.04
2013-12-3,35,34,33,29,28,27,81,81,80,29.77,29.57,12,4,15,0.00
2013-12-4,33,24,8,27,20,5,87,83,81,29.83,29.54,15,8,20,0.02
2013-12-5,8,4,-4,5,0,-8,87,84,82,30.43,29.84,16,7,25,0.00
2013-12-6,1,-5,-10,-4,-9,-14,85,82,80,30.77,30.44,8,2,12,0.00
2013-12-7,1,-7,-14,-4,-11,-18,85,82,76,30.82,30.63,11,3,15,0.00
2013-12-8,10,4,-3,7,1,-7,88,87,83,30.63,30.12,15,7,19,0.00
2013-12-9,11,-1,-8,8,-5,-11,87,84,79,30.23,29.85,19,8,25,0.00
2013-12-10,18,8,-1,14,4,-5,87,84,78,30.41,29.83,15,5,21,0.00
2013-12-11,6,-3,-12,2,-8,-15,84,80,73,30.66,30.32,15,4,20,0.00
2013-12-12,21,12,2,15,8,-2,87,84,76,30.36,30.17,10,2,13,0.00
2013-12-13,14,12,9,11,8,6,87,84,82,30.34,30.14,20,12,25,0.00
2013-12-14,12,7,-1,8,3,-5,87,85,81,30.34,30.19,13,3,15,0.00
2013-12-15,5,2,-1,2,-2,-6,86,81,76,30.25,30.15,12,4,15,0.00
2013-12-16,31,16,5,27,12,1,87,85,82,30.15,29.98,18,8,22,0.00
2013-12-17,34,24,13,29,19,9,87,83,77,30.14,29.98,12,4,20,0.00
2013-12-18,38,26,13,32,21,10,87,82,75,30.06,29.67,19,7,25,0.01
2013-12-19,18,13,7,14,9,4,87,84,78,30.12,29.89,20,9,24,0.00
2013-12-20,13,10,8,9,7,4,87,86,85,30.11,29.92,8,2,13,0.00
2013-12-21,18,13,8,14,10,4,87,85,84,30.08,29.91,11,2,14,0.00
2013-12-22,9,1,-7,6,-2,-10,87,85,83,30.42,30.06,12,6,17,0.00
2013-12-23,-5,-10,-16,-10,-15,-20,84,80,75,30.65,30.42,12,4,16,0.00
2013-12-24,16,1,-17,12,-3,-21,86,81,71,30.60,30.18,24,11,28,0.00
2013-12-25,30,20,12,25,16,8,87,84,81,30.21,30.09,16,5,21,0.00
2013-12-26,30,26,18,26,21,13,85,83,81,30.18,30.06,8,1,10,0.00
2013-12-27,39,31,23,34,27,19,85,83,80,30.17,29.93,19,6,24,0.00
2013-12-28,42,25,1,36,20,-2,86,83,76,30.19,29.66,23,6,25,0.00
2013-12-29,1,-9,-12,-3,-14,-17,85,78,70,30.49,30.19,21,7,24,0.00
2013-12-30,5,-3,-11,1,-7,-15,86,83,76,30.37,30.22,17,6,21,0.00
2013-12-31,1,-5,-12,-3,-9,-17,86,82,77,30.49,30.32,11,2,14,0.00
2014-1-1,1,-3,-6,-6,-9,-12,78,75,71,30.58,30.47,11,5,14,0.00
2014-1-2,-2,-9,-14,-7,-14,-18,84,80,74,30.63,30.42,7,1,10,0.00